カタログに戻る

DELTA 1 DEB

運用中SSO
NORAD 12166·DEBRIS·🇺🇸 United States

打ち上げ Mar 5, 1978 から Vandenberg Space Force Base

Loading…

次のパス (今後24時間)

TLE

最新Source: Space-Track

元期: Sep 14, 2026, 13:49 UTC

1 12166U 78026F   26257.57588781  .00000203  00000-0  11831-3 0  9992
2 12166  98.8835 293.3537 0036158 316.7248 196.7526 14.19000680352505

AllMySatでDELTA 1 DEBをリアルタイム追跡

Download on the App Store